Wind_Speed
13 13 12 12 12 12 13 12 11 11 10 10 10 10 10 10 10 10 11 10 11 11 12 13 13 13 13 12 12 13 14 14 15 15 15 15 15 15 16 16 17 17 18
14 13 12 13 13 13 13 13 12 12 10 10 11 11 12 11 11 11 12 11 11 11 12 13 13 13 13 13 13 13 14 15 15 15 15 15 15 16 17 17 18 18 18
13 12 13 13 13 13 14 15 13 12 11 11 11 12 12 12 12 12 12 11 11 12 13 13 14 14 14 14 13 14 15 15 15 15 16 15 16 16 17 17 17 18 19
13 13 14 14 13 13 13 13 11 11 11 11 11 11 11 11 11 11 11 11 12 12 12 13 13 13 14 15 14 14 14 14 15 16 17 17 17 16 17 18 19 19 19
14 14 14 13 13 12 12 11 10 10 10 10 11 11 11 10 11 12 12 12 11 12 12 13 14 14 14 14 14 14 14 14 15 15 16 16 17 17 18 18 19 20 20
14 15 14 12 12 12 11 10 10 10 10 11 11 11 11 11 11 11 12 11 12 12 13 13 12 13 13 13 14 14 13 13 14 14 15 15 16 17 18 18 18 19 20
14 14 12 11 11 11 10 10 10 10 10 11 11 12 12 12 11 11 11 12 12 13 13 12 12 13 13 13 13 14 14 14 14 14 14 15 15 16 17 18 18 19 20
13 13 13 12 11 11 10 10 10 10 10 11 11 11 11 11 11 11 11 11 12 12 12 12 12 13 13 13 13 14 14 14 14 14 14 14 15 16 16 17 18 19 19
13 13 13 12 11 10 10 10 10 11 11 11 11 11 11 10 11 11 11 12 12 12 12 11 12 13 13 13 13 13 13 13 13 14 15 15 15 16 17 17 18 19 19
14 13 13 13 12 11 10 10 11 11 11 11 11 11 11 11 11 11 11 11 11 12 11 11 12 13 13 13 13 13 14 14 15 15 16 16 17 17 17 17 18 19 19
15 15 14 13 12 11 11 12 12 12 11 11 12 12 12 13 12 12 12 12 12 12 12 11 11 11 12 12 13 14 15 15 15 15 16 16 17 17 17 18 18 18 19
15 15 14 14 14 13 12 13 13 13 12 11 12 12 12 12 12 13 13 13 13 13 12 12 12 12 12 12 13 14 14 15 15 15 15 16 16 16 17 18 17 17 19
15 14 14 13 14 13 13 13 13 13 12 11 12 12 12 12 12 13 13 13 13 14 13 13 13 13 13 13 13 13 14 14 15 16 15 16 16 16 17 17 18 18 19
15 15 15 15 14 14 14 13 13 13 13 13 13 13 13 13 13 13 13 13 14 14 14 14 13 13 13 13 14 14 15 15 15 16 16 16 16 16 17 17 18 19 19
14 15 17 16 15 15 15 14 14 14 13 14 14 14 14 14 14 14 14 14 15 15 15 15 15 15 15 15 15 16 16 16 16 17 17 17 18 18 19 19 19 20 20
15 16 16 16 16 16 16 16 15 15 14 14 15 15 15 15 16 16 16 15 16 16 16 17 17 17 16 16 16 16 17 17 18 18 18 18 19 20 20 21 21 21 21
17 18 17 17 17 17 17 17 16 16 15 15 16 15 16 16 16 17 16 17 17 18 18 18 18 17 17 16 17 17 17 17 18 18 18 19 20 20 21 22 22 22 22
18 18 18 18 17 17 17 17 16 16 16 17 16 16 16 17 17 17 16 17 17 17 17 18 17 17 17 17 18 18 18 18 19 19 19 20 20 21 22 22 23 23 23
18 18 18 17 17 17 17 17 17 17 17 17 17 17 17 17 17 17 17 18 17 17 18 18 18 18 19 19 19 19 19 19 20 20 21 21 21 22 22 23 23 23 23
18 18 18 17 18 18 18 18 18 17 17 17 18 18 18 18 17 17 18 18 17 18 19 19 20 20 20 21 21 22 22 21 21 21 22 22 22 22 22 23 22 23 23
18 18 18 18 18 19 19 19 19 18 17 18 18 18 17 17 17 17 18 19 19 19 20 20 21 21 22 22 23 23 23 22 22 22 23 23 23 22 22 22 22 22 22
19 18 18 18 19 19 19 19 19 19 19 19 19 18 18 18 19 19 19 19 20 21 21 22 22 22 22 22 22 22 22 23 23 22 23 23 23 22 21 22 23 22 22
19 19 19 19 19 19 19 20 20 20 20 19 20 20 20 20 20 21 20 20 21 21 21 22 22 22 22 22 22 22 22 22 22 22 23 23 23 23 22 23 23 23 23
19 19 19 19 19 19 19 20 20 19 20 20 20 20 21 21 21 22 21 21 22 22 22 22 22 22 21 21 21 22 22 22 22 23 23 23 23 23 24 24 23 24 24
19 19 19 19 20 20 20 20 20 20 21 21 20 20 20 20 21 21 21 21 21 22 22 22 23 22 21 21 22 22 22 22 22 23 23 23 23 24 24 24 23 23 24
20 20 20 20 20 20 21 21 21 20 21 20 20 21 21 21 22 22 21 21 21 22 22 22 23 23 22 22 22 22 22 22 23 23 23 24 24 23 23 24 24 24 24
Wind_Direction
285 287 290 297 299 300 300 293 294 294 293 294 294 293 289 287 287 287 286 282 278 274 275 277 276 273 272 274 271 271 271 273 275 277 277 275 272 267 265 266 266 266 267
277 284 287 291 293 296 296 290 288 286 286 288 287 289 287 284 284 284 284 283 283 279 278 277 275 270 269 270 272 272 274 274 274 276 276 274 270 269 267 267 268 266 266
275 280 286 288 287 290 291 292 285 282 279 283 290 290 288 283 285 288 288 288 288 288 280 278 274 270 270 275 276 274 275 275 274 274 273 273 271 271 270 269 270 270 268
274 282 286 286 289 288 287 290 283 281 279 282 288 290 285 282 283 288 291 288 291 290 285 280 275 273 275 278 281 279 278 278 277 277 275 276 275 273 272 272 271 271 269
273 276 280 279 282 287 288 286 280 281 281 286 288 288 288 285 283 287 287 288 290 289 286 281 276 273 276 279 278 277 278 278 278 280 278 277 278 275 273 273 273 270 267
273 273 274 272 272 278 283 278 277 278 280 283 287 289 288 287 286 288 289 288 286 284 283 280 276 273 276 277 276 277 277 280 282 282 283 283 281 278 276 274 273 271 267
271 272 267 266 271 274 273 271 275 277 278 281 284 286 286 287 286 289 292 291 289 286 283 280 276 278 276 278 276 276 277 279 279 282 284 285 285 283 280 277 276 273 269
266 267 265 266 268 268 269 269 271 274 276 278 280 282 284 287 288 289 292 293 289 286 286 281 275 276 279 279 277 276 279 278 280 283 285 286 287 286 283 280 278 274 271
261 263 265 265 263 265 267 269 270 271 275 275 278 280 279 285 287 289 291 295 297 293 287 284 280 280 279 276 277 278 281 282 282 283 286 288 288 288 285 282 279 276 275
265 263 266 262 262 263 266 271 272 272 275 276 276 278 278 279 283 285 289 292 296 297 293 289 284 283 281 280 281 283 285 285 285 286 287 289 288 291 288 285 282 279 276
268 267 265 261 261 263 268 269 272 275 278 281 280 278 277 275 279 282 286 289 293 295 295 296 293 290 287 283 284 284 289 291 291 293 292 291 291 290 287 286 284 282 279
267 266 266 267 264 265 269 274 273 278 283 283 281 280 276 275 276 280 284 287 289 289 292 290 291 292 288 287 291 288 290 292 293 295 297 295 293 292 291 289 286 283 282
264 265 267 267 266 267 272 277 275 278 282 284 282 278 275 276 277 278 281 282 285 287 288 285 291 296 291 286 290 292 292 293 294 296 298 298 297 297 296 294 291 290 289
261 267 271 271 268 268 271 274 277 279 279 280 278 275 275 275 277 276 277 279 283 284 286 283 287 291 290 287 289 290 291 293 296 298 300 301 301 301 301 300 297 293 291
263 268 271 270 268 271 276 277 279 280 280 279 276 273 273 276 276 275 277 280 283 285 286 285 286 286 285 285 288 289 289 289 292 295 297 298 300 299 301 302 301 298 296
268 271 273 270 270 272 275 278 279 280 281 282 282 279 278 278 278 279 279 282 286 287 286 287 286 286 285 286 288 290 290 289 290 292 295 297 299 300 301 300 298 298 298
272 274 274 274 274 273 274 277 279 280 282 280 279 277 278 281 281 281 281 282 283 284 285 288 288 287 288 291 292 293 292 292 292 295 297 298 298 298 299 298 297 297 296
268 271 274 277 276 275 275 277 277 276 277 278 277 277 280 282 281 281 282 283 283 285 285 286 287 287 289 291 293 293 293 293 293 295 297 298 298 298 298 297 297 297 296
268 270 271 273 272 272 275 277 276 276 278 280 281 279 280 281 281 280 280 282 283 284 282 285 287 289 291 292 292 292 292 293 294 295 295 296 297 298 298 297 297 297 296
271 272 272 271 268 268 270 274 277 277 277 280 282 280 279 280 280 280 280 282 284 284 284 285 286 288 290 291 291 291 290 291 292 294 295 296 298 298 297 296 295 295 295
270 271 271 271 271 269 270 270 272 273 274 277 279 280 278 280 280 280 281 283 284 285 285 285 287 287 288 290 290 290 289 289 290 292 293 294 296 297 297 296 295 295 296
272 271 270 270 270 269 269 270 271 275 275 275 275 277 277 277 278 279 280 282 283 284 285 286 287 287 288 290 290 290 289 289 290 291 292 294 296 297 298 297 296 295 295
273 273 271 272 271 269 269 269 271 273 274 273 274 277 278 278 278 278 280 282 284 284 284 286 287 288 287 289 289 290 290 289 290 290 291 294 295 296 297 298 298 296 295
273 272 272 272 272 271 270 270 271 272 274 275 276 278 279 279 280 281 281 284 284 285 285 286 287 288 288 288 288 290 289 289 291 291 290 293 296 297 298 298 298 297 297
272 270 270 270 269 270 272 272 272 274 276 277 277 278 279 279 280 282 285 286 286 286 286 285 286 286 286 287 287 288 289 289 290 291 291 293 294 295 296 297 297 298 297
272 269 268 268 268 272 272 272 272 273 275 275 275 276 278 278 280 282 285 287 288 287 286 286 287 286 285 286 287 288 289 290 290 291 293 293 294 295 296 296 297 297 297
Height
5835 5834 5833 5832 5831 5830 5829 5828 5827 5826 5826 5825 5825 5825 5824 5823 5823 5822 5821 5820 5820 5819 5819 5819 5819 5819 5819 5819 5819 5819 5819 5819 5819 5820 5820 5820 5820 5821 5821 5821 5822 5822 5822
5831 5831 5830 5830 5829 5828 5826 5826 5825 5824 5823 5823 5823 5822 5822 5821 5820 5819 5818 5817 5816 5816 5816 5816 5816 5816 5816 5816 5816 5815 5815 5815 5815 5815 5815 5816 5817 5816 5816 5816 5816 5816 5816
5827 5827 5827 5826 5826 5825 5823 5823 5822 5821 5820 5820 5820 5819 5818 5818 5817 5816 5815 5815 5814 5813 5813 5813 5813 5813 5813 5812 5812 5812 5812 5811 5811 5811 5811 5811 5811 5811 5811 5811 5811 5810 5811
5824 5824 5823 5823 5822 5821 5820 5819 5818 5818 5818 5817 5817 5816 5815 5814 5814 5814 5813 5812 5811 5810 5810 5810 5809 5809 5809 5809 5808 5808 5807 5807 5807 5806 5806 5806 5806 5806 5805 5805 5805 5805 5805
5820 5820 5820 5819 5818 5818 5817 5816 5815 5815 5815 5815 5814 5813 5813 5812 5812 5811 5810 5809 5808 5808 5807 5806 5806 5806 5805 5805 5804 5804 5803 5803 5803 5802 5801 5801 5801 5800 5800 5799 5799 5799 5799
5816 5816 5816 5815 5815 5814 5814 5813 5813 5812 5812 5812 5811 5810 5810 5809 5808 5808 5807 5806 5805 5805 5804 5803 5802 5802 5801 5801 5801 5800 5800 5799 5798 5798 5797 5796 5795 5795 5794 5794 5793 5793 5794
5812 5812 5811 5812 5812 5811 5811 5810 5810 5810 5809 5809 5808 5808 5807 5806 5805 5805 5804 5803 5802 5801 5800 5799 5799 5799 5798 5798 5797 5797 5796 5795 5794 5793 5793 5792 5791 5790 5789 5789 5788 5788 5788
5809 5808 5808 5808 5808 5808 5808 5807 5807 5807 5806 5806 5805 5804 5804 5803 5802 5802 5801 5800 5799 5798 5797 5796 5796 5796 5795 5794 5794 5793 5792 5791 5790 5789 5788 5788 5787 5786 5784 5784 5783 5783 5783
5806 5805 5805 5805 5805 5804 5804 5804 5804 5803 5803 5802 5801 5801 5800 5800 5799 5799 5798 5797 5796 5795 5794 5793 5793 5792 5792 5791 5790 5790 5789 5788 5787 5786 5785 5784 5783 5781 5780 5779 5778 5778 5778
5802 5802 5802 5802 5802 5801 5801 5801 5800 5800 5799 5798 5798 5798 5797 5797 5797 5796 5795 5794 5794 5793 5792 5791 5790 5790 5789 5789 5788 5787 5786 5785 5784 5782 5781 5780 5778 5777 5775 5774 5773 5773 5773
5799 5799 5799 5799 5799 5798 5798 5797 5796 5796 5795 5795 5795 5795 5794 5794 5794 5793 5793 5792 5791 5790 5789 5788 5787 5787 5786 5785 5784 5783 5782 5781 5780 5778 5777 5775 5774 5773 5771 5770 5769 5768 5767
5795 5795 5795 5795 5795 5795 5794 5794 5793 5793 5792 5792 5791 5791 5791 5791 5791 5790 5790 5789 5788 5787 5786 5786 5785 5784 5783 5782 5781 5780 5778 5777 5776 5775 5773 5771 5770 5768 5767 5765 5764 5763 5762
5792 5792 5792 5791 5791 5791 5791 5790 5790 5789 5789 5788 5788 5788 5788 5788 5787 5787 5786 5786 5785 5784 5784 5783 5782 5781 5780 5779 5778 5776 5775 5773 5772 5771 5769 5768 5766 5764 5763 5761 5759 5758 5757
5788 5788 5788 5788 5788 5788 5788 5787 5787 5786 5786 5785 5785 5785 5784 5784 5784 5783 5783 5782 5782 5781 5780 5779 5778 5777 5776 5775 5774 5773 5771 5770 5768 5767 5765 5764 5762 5760 5758 5757 5755 5753 5751
5784 5784 5784 5784 5784 5784 5784 5783 5783 5782 5782 5781 5781 5781 5781 5780 5780 5779 5779 5778 5778 5777 5776 5775 5774 5773 5772 5771 5770 5769 5767 5766 5764 5763 5761 5760 5758 5756 5754 5752 5750 5748 5746
5780 5780 5780 5780 5779 5779 5779 5779 5778 5778 5778 5777 5777 5777 5777 5776 5776 5775 5775 5774 5774 5773 5772 5771 5770 5769 5768 5767 5765 5764 5762 5761 5760 5759 5757 5755 5753 5751 5749 5747 5745 5743 5741
5776 5776 5775 5775 5775 5774 5774 5774 5774 5774 5774 5774 5773 5773 5773 5772 5772 5771 5770 5770 5769 5768 5768 5767 5765 5764 5763 5762 5761 5759 5758 5757 5755 5754 5752 5750 5748 5746 5744 5742 5740 5738 5736
5771 5771 5771 5771 5770 5770 5769 5769 5769 5769 5769 5769 5769 5769 5768 5768 5767 5766 5766 5765 5764 5763 5762 5761 5760 5759 5758 5757 5756 5754 5753 5752 5750 5749 5747 5745 5743 5741 5739 5736 5734 5732 5730
5766 5766 5766 5765 5765 5765 5765 5765 5765 5765 5765 5765 5764 5764 5763 5763 5762 5761 5760 5760 5759 5758 5757 5756 5755 5754 5753 5752 5750 5749 5748 5746 5745 5743 5741 5739 5737 5735 5733 5731 5728 5726 5724
5761 5761 5760 5760 5760 5760 5760 5760 5760 5760 5760 5760 5759 5759 5758 5757 5757 5756 5755 5754 5753 5753 5752 5751 5750 5749 5747 5746 5744 5743 5742 5740 5739 5737 5735 5733 5731 5729 5727 5724 5722 5720 5718
5755 5755 5755 5755 5754 5754 5755 5755 5755 5755 5755 5754 5754 5753 5752 5752 5751 5750 5750 5749 5748 5747 5746 5745 5744 5742 5741 5740 5738 5736 5735 5733 5732 5731 5729 5727 5725 5723 5721 5718 5716 5714 5712
5750 5749 5749 5749 5749 5749 5749 5749 5750 5749 5749 5749 5748 5747 5747 5746 5746 5745 5744 5743 5741 5740 5740 5738 5737 5736 5735 5733 5731 5730 5728 5727 5725 5724 5722 5720 5718 5716 5714 5712 5709 5707 5705
5744 5743 5743 5743 5743 5743 5743 5744 5744 5743 5743 5742 5742 5741 5741 5740 5739 5738 5737 5736 5735 5734 5733 5732 5730 5729 5728 5726 5724 5723 5721 5720 5718 5717 5715 5714 5712 5710 5708 5705 5703 5701 5699
5737 5737 5737 5737 5737 5737 5737 5737 5737 5737 5736 5736 5736 5735 5734 5734 5733 5732 5731 5730 5729 5728 5726 5725 5724 5722 5721 5719 5718 5716 5715 5713 5711 5710 5708 5707 5705 5703 5701 5699 5696 5694 5692
5731 5731 5731 5731 5731 5731 5731 5731 5731 5730 5730 5730 5729 5728 5728 5727 5726 5725 5724 5723 5722 5721 5720 5718 5717 5716 5714 5713 5711 5710 5708 5706 5705 5703 5701 5700 5698 5696 5694 5691 5689 5687 5684
5725 5725 5725 5725 5725 5725 5724 5724 5724 5724 5724 5723 5723 5722 5721 5720 5719 5719 5717 5716 5715 5713 5712 5711 5709 5708 5707 5706 5704 5703 5701 5700 5698 5696 5694 5693 5691 5689 5687 5684 5682 5680 5677